Regional Weather Roundup
Issued by NWS

Home | Current Version | Previous Version | Text Only | Print | Product List | Glossary On
Versions: 1 2 3 4 5 6 7 8 9 10 11 12 13 14 15 16 17 18 19 20 21 22 23 24 25 26 27 28 29 30 31 32 33 34 35 36 37 38 39 40 41 42 43 44 45 46 47 48 49 50
000
ASUS46 KLOX 211902
RWRCA

SOUTHERN CALIFORNIA WEATHER ROUNDUP
NATIONAL WEATHER SERVICE OXNARD CALIFORNIA
1100 AM PST FRI NOV 21 2014

NOTE: "FAIR" INDICATES FEW OR NO CLOUDS BELOW 12,000 FEET WITH NO
SIGNIFICANT WEATHER AND/OR OBSTRUCTIONS TO VISIBILITY.

  -  STATIONS PRECEEDED BY AN ASTERISK (*) ARE NOT NWS OR FAA
     STATIONS AND ARE NOT SUBJECT TO NWS AND FAA QUALITY CONTROL.

CAZ041-042-087-212000-
LA AND ORANGE COUNTY COASTAL AREAS


CITY           SKY/WX    TMP DP  RH WIND       PRES   REMARKS
L.A. DOWNTOWN  SUNNY     70  47  43 CALM      29.96F
L.A. AIRPORT   MOSUNNY   67  46  47 SW10      29.98S
LONG BEACH     SUNNY     69  50  50 VRB5      29.98S

CITY           SKY/WX    TMP DP  RH WIND       PRES   REMARKS
AVALON           N/A     68 N/A N/A NE2         N/A
FULLERTON      SUNNY     69  49  48 E5        29.97S
*GETTY CENTER    N/A     63  39  42 NE9G23      N/A
HAWTHORNE      SUNNY     70  48  45 VRB3      29.97F
*LOS ALAMITOS  MOSUNNY   67  50  53 VRB1      29.98S
*REDONDO BEACH   N/A     69  49  48 W1        29.97R
SANTA ANA      MOSUNNY   70  46  42 VRB5      29.98S
STA MONICA APT SUNNY     72  39  30 VRB5      29.97F
TORRANCE       SUNNY     70  48  46 W12       29.99R
*UCLA            N/A     68  37  32 NW8       29.95S

$$

CAZ547-548-048-212000-
LA COUNTY VALLEYS AND INLAND EMPIRE


CITY           SKY/WX    TMP DP  RH WIND       PRES   REMARKS
BURBANK        SUNNY     68  40  35 W12       29.96F
VAN NUYS       SUNNY     67  40  37 NW7       29.98F

CITY           SKY/WX    TMP DP  RH WIND       PRES   REMARKS
CORONA AIRPORT CLEAR     66  50  56 CALM      29.98F
*CHATSWORTH      N/A     67  44  42 N2        29.97S
CHINO          MOSUNNY   67  50  54 CALM      29.99F
*NORTHRIDGE      N/A     66  37  34 NW5G12      N/A
ONTARIO        MOSUNNY   63  50  62 VRB3      29.99S
POMONA         MOSUNNY   63  50  63 VRB6      30.01S
RIVERSIDE      SUNNY     64  51  62 SW6       29.98F
SAN BERNARDINO MOSUNNY   63  48  59 W7        29.98F
*SAN GABRIEL     N/A     65  50  56 CALM      29.95S
*WHITEMAN AP   NOT AVBL
*WOODLAND HILL   N/A     68  39  34 VRB6        N/A

$$

CAZ054-055-212000-
LA AND SAN BERNARDINO COUNTY MOUNTAINS


CITY           SKY/WX    TMP DP  RH WIND       PRES   REMARKS
*ACTON           N/A     59  39  47 N7          N/A
*BIG BEAR AIRP PTCLDY    39  32  75 CALM      30.05S
*BIG PINES       N/A     44  31  61 SW2         N/A
*CHILAO          N/A     47  34  60 NE14G25     N/A
MT WILSON NWS    N/A     50  36  57 NW2         N/A
SANDBERG       MOSUNNY   49  39  68 N22       30.07S
*WARM SPRINGS    N/A     54  38  54 W9          N/A

$$

CAZ028-029-059-060-099-212000-
ANTELOPE VALLEY AND SURROUNDING AREAS


CITY           SKY/WX    TMP DP  RH WIND       PRES   REMARKS
LANCASTER      SUNNY     61  36  39 VRB7G17   30.03S
PALMDALE       SUNNY     59  38  45 W13       30.03S

CITY           SKY/WX    TMP DP  RH WIND       PRES   REMARKS
29 PALMS       MOSUNNY   63  38  39 NW13      30.04F
BARSTOW/DAGGET SUNNY     62  37  39 W9        30.00F
BISHOP         SUNNY     56  24  29 W7        30.04F
CHINA LAKE     SUNNY     63  33  32 SE5       30.00S
EDWARDS AFB    MOSUNNY   60  34  37 CALM      30.01R
MOJAVE         FAIR      57  37  47 W17G24    30.03R
NEEDLES        SUNNY     70  18  13 N6        29.94F
VICTORVILLE    SUNNY     57  36  44 N5        30.02S

$$

CAZ039-040-212000-
VENTURA AND SANTA BARBARA COUNTY COAST


CITY           SKY/WX    TMP DP  RH WIND       PRES   REMARKS
CAMARILLO      SUNNY     67  48  50 SW3       29.98F
NWS OXNARD       N/A     67  51  56 CALM      29.98S
OXNARD AIRPORT SUNNY     68  48  48 NW6       29.98F
*POINT MUGU    MOSUNNY   68  49  50 CALM      30.00R
SBA APT/GOLETA SUNNY     72  42  34 N17       29.98F
*SANTA BARBARA   N/A     71  42  35 CALM      30.06F
*VENTURA         N/A     66  51  58 CALM      30.02S

$$

CAZ044-045-212000-
VENTURA COUNTY VALLEYS


CITY           SKY/WX    TMP DP  RH WIND       PRES   REMARKS
*SIMI VALLEY     N/A     66  47  50 S1        29.96S
*OJAI            N/A     70  45  40 CALM      29.93S
*FILLMORE        N/A     68  50  52 CALM      29.89S

$$

CAZ053-212000-
VENTURA COUNTY MOUNTAINS


CITY           SKY/WX    TMP DP  RH WIND       PRES   REMARKS
*LOCKWOOD VLY    N/A     46  34  61 MISG        N/A
*ROSE VALLEY     N/A     61  39  44 MISG        N/A

$$

CAZ034-035-036-212000-
CENTRAL COAST AND SANTA YNEZ VALLEY


CITY           SKY/WX    TMP DP  RH WIND       PRES   REMARKS
SAN LUIS OBISP MOSUNNY   62  49  62 N9        30.09S
SANTA MARIA    MOSUNNY   66  50  56 NW10      30.08S

CITY           SKY/WX    TMP DP  RH WIND       PRES   REMARKS
*CAL POLY SLO    N/A     59  52  77 N12         N/A
*LOMPOC        SUNNY     66  46  48 NW10      30.07F
*PISMO BEACH     N/A     64  50  61 NW3       30.09F
*SANTA YNEZ    FAIR      64  45  48 N10       30.05S

$$

CAZ037-038-051-212000-
SAN LUIS OBISPO COUNTY INTERIOR AND CUYAMA VALLEY


CITY           SKY/WX    TMP DP  RH WIND       PRES   REMARKS
*CUYAMA          N/A     52  45  77 E1        30.07S
PASO ROBLES    CLOUDY    55  48  77 CALM      30.11F

$$

CAZ032-033-061-212000-
SOUTHERN DESERTS


CITY           SKY/WX    TMP DP  RH WIND       PRES   REMARKS
BLYTHE         SUNNY     67  29  24 SE5       29.92F
IMPERIAL       MOSUNNY   67  52  58 NW9       29.92F
PALM SPRINGS   MOSUNNY   65  43  44 SW5       29.96S
THERMAL        SUNNY     71  44  37 CALM      29.92F

$$

ELSEWHERE ACROSS THE WESTERN UNITED STATES AND MEXICO


CITY           SKY/WX    TMP DP  RH WIND       PRES   REMARKS
DENVER, CO     MOSUNNY   53  18  25 CALM      29.92F
GRAND CANYON,  MOSUNNY   49  20  31 VRB3      30.03F
HONOLULU, HI   MOSUNNY   81  68  64 E13       30.07R
KAHULUI, MAUI  MOSUNNY   80  70  71 NE18G26   30.06S
LAKE TAHOE, CA SUNNY     44  28  53 CALM      30.07S
LAS VEGAS, NV  MOSUNNY   64  21  19 CALM      29.95F
MAMMOTH LAKES, FAIR      45  18  33 CALM      30.09S
MEXICO CITY, M NOT AVBL
PHOENIX, AZ    PTSUNNY   67  21  17 CALM      29.91F
PORTLAND, OR   LGT RAIN  43  40  89 SE15      29.76F FOG
RENO, NV       PTSUNNY   46  34  62 CALM      30.06F
SALT LAKE CITY SUNNY     47  21  35 VRB3      30.03F
SAN DIEGO, CA  MOSUNNY   68  52  56 NW8       30.00F
SAN FRANCISCO, PTSUNNY   59  55  87 E7        30.11S
SAN JOSE, CA   MOSUNNY   58  50  75 CALM      30.11F
SEATTLE, WA    LGT RAIN  51  46  83 SE7       29.67F
TIJUANA, MEX   PTSUNNY   64  50  59 N5        30.02

$$

STATION/POSITION TIME  TEMP    WIND        PRES    VSBY  WAVE
                       AIR SEA DIR/SP/G                  HT/PER
                 (UTC) (F)     (DEG/KT/KT) (MB)    (MI)  (FT/S)
POINT ARGUELLO B NOT AVBL
WEST SANTA BARBA 1800   61 63  330/ 21/ 23 1016.7R         6/11
POINT CONCEPTION NOT AVBL
EAST SANTA BARBA 1800   62     310/ 17     1016.0R
SANTA MONICA BAY 1800   63 65  320/ 10/ 12 1015.7S         5/ 6


USA.gov is the U.S. government's official web portal to all federal, state and local government web resources and services.